Fremont, NE

12:09 PM CDT on August 18, 2019 (GMT -0500)
Fremont Municipal

Weather History for KFET - July, 2019

Change the Weather History Date:

Monday, July 22, 2019

  Actual Average Record
Temperature  
Mean Temperature 70 °F -  
Max Temperature 79 °F 86 °F 104 °F (1983)
Min Temperature 61 °F 64 °F 50 °F (1970)
Cooling Degree Days 5    
Growing Degree Days 20 (Base 50)    
Moisture  
Dew Point 57 °F    
Average Humidity 64    
Maximum Humidity 93    
Minimum Humidity 40    
Precipitation  
Precipitation 0.00 in - - ()
Sea Level Pressure  
Sea Level Pressure 30.25 in    
Wind  
Wind Speed 6 mph (North)    
Max Wind Speed 12 mph    
Max Gust Speed 18 mph    
Visibility 10 miles    
Events      
Averages and records for this station are not official NWS values.
T = Trace of Precipitation, MM = Missing Value Source: NWS Daily Summary

Daily Weather History Graph

Daily Weather History Graph

Search for Another Location

Airport or City:

Astronomy

Jul. 22, 2019 Rise Set
Actual Time 6:11 AM CDT 8:53 PM CDT
Civil Twilight 5:39 AM CDT 9:25 PM CDT
Nautical Twilight 4:58 AM CDT 10:05 PM CDT
Astronomical Twilight 4:12 AM CDT 10:51 PM CDT
Moon No Moon Rise 11:32 AM CDT (7/22)
Length of Visible Light 15h 46m
Length of Day
14h 41m
Waning Gibbous, 72% of the Moon is Illuminated
Jul 22
Waning Gibbous
Jul 24
Last Quarter
Jul 31
New
Aug 7
First Quarter
Aug 15
Full

Hourly Weather History & Observations

Time (CDT) Temp. Dew Point Humidity Pressure Visibility Wind Dir Wind Speed Gust Speed Precip Events Conditions
12:15 AM 69.1 °F 60.8 °F 75% 30.17 in 10.0 mi NNW 5.8 mph - N/A   Overcast
12:35 AM 69.1 °F 60.8 °F 75% 30.17 in 10.0 mi NNW 5.8 mph - N/A   Overcast
12:55 AM 69.3 °F 61.5 °F 76% 30.17 in 10.0 mi NNW 3.5 mph - N/A   Overcast
1:15 AM 69.4 °F 61.7 °F 76% 30.18 in 10.0 mi NNW 4.6 mph - N/A   Overcast
1:35 AM 68.9 °F 61.7 °F 78% 30.19 in 10.0 mi NNW 5.8 mph - N/A   Mostly Cloudy
1:55 AM 68.4 °F 61.7 °F 79% 30.19 in 10.0 mi NNW 5.8 mph - N/A   Mostly Cloudy
2:15 AM 68.4 °F 61.7 °F 79% 30.19 in 10.0 mi NNW 4.6 mph - N/A   Overcast
2:35 AM 68.5 °F 61.3 °F 78% 30.19 in 10.0 mi North 4.6 mph - N/A   Overcast
2:55 AM 68.5 °F 60.6 °F 76% 30.19 in 10.0 mi NNW 4.6 mph - N/A   Mostly Cloudy
3:15 AM 66.7 °F 60.1 °F 79% 30.19 in 10.0 mi NNW 5.8 mph - N/A   Scattered Clouds
3:35 AM 66.2 °F 59.9 °F 80% 30.19 in 10.0 mi NNW 6.9 mph - N/A   Clear
3:55 AM 65.7 °F 59.9 °F 82% 30.20 in 10.0 mi NNW 5.8 mph - N/A   Clear
4:15 AM 64.8 °F 59.9 °F 84% 30.20 in 10.0 mi NNW 4.6 mph - N/A   Clear
4:35 AM 64.6 °F 59.9 °F 85% 30.21 in 10.0 mi NNW 4.6 mph - N/A   Clear
4:55 AM 63.7 °F 59.9 °F 87% 30.21 in 10.0 mi NNW 4.6 mph - N/A   Clear
5:15 AM 62.8 °F 60.3 °F 91% 30.21 in 10.0 mi NNW 4.6 mph - N/A   Clear
5:35 AM 62.4 °F 59.9 °F 91% 30.21 in 10.0 mi NNW 3.5 mph - N/A   Clear
5:55 AM 62.2 °F 59.9 °F 92% 30.22 in 10.0 mi NNW 4.6 mph - N/A   Clear
6:15 AM 61.7 °F 59.7 °F 93% 30.23 in 10.0 mi NNW 5.8 mph - N/A   Clear
6:35 AM 62.6 °F 59.9 °F 91% 30.23 in 10.0 mi NNW 4.6 mph - N/A   Clear
6:55 AM 63.0 °F 59.9 °F 90% 30.24 in 10.0 mi NNW 8.1 mph - N/A   Clear
7:15 AM 63.7 °F 60.1 °F 88% 30.25 in 10.0 mi NNW 4.6 mph - N/A   Clear
7:35 AM 64.6 °F 60.1 °F 85% 30.25 in 10.0 mi NNW 4.6 mph - N/A   Clear
7:55 AM 65.5 °F 59.7 °F 82% 30.26 in 10.0 mi North 5.8 mph - N/A   Clear
8:15 AM 66.2 °F 58.8 °F 77% 30.26 in 10.0 mi North 8.1 mph - N/A   Clear
8:35 AM 67.5 °F 58.8 °F 74% 30.27 in 10.0 mi North 5.8 mph - N/A   Clear
8:55 AM 68.9 °F 58.6 °F 70% 30.28 in 10.0 mi North 6.9 mph - N/A   Clear
9:15 AM 69.8 °F 58.5 °F 67% 30.28 in 10.0 mi North 8.1 mph - N/A   Clear
9:35 AM 70.9 °F 59.4 °F 67% 30.28 in 10.0 mi North 6.9 mph - N/A   Clear
9:55 AM 72.1 °F 58.8 °F 63% 30.28 in 10.0 mi North 6.9 mph - N/A   Clear
10:15 AM 72.5 °F 58.8 °F 62% 30.28 in 10.0 mi NNW 8.1 mph - N/A   Clear
10:35 AM 73.0 °F 58.1 °F 59% 30.29 in 10.0 mi North 8.1 mph - N/A   Clear
10:55 AM 73.8 °F 57.2 °F 56% 30.29 in 10.0 mi North 10.4 mph - N/A   Clear
11:15 AM 74.3 °F 56.1 °F 53% 30.29 in 10.0 mi NNE 8.1 mph 16.1 mph N/A   Scattered Clouds
11:35 AM 74.7 °F 55.2 °F 51% 30.29 in 10.0 mi North 9.2 mph - N/A   Scattered Clouds
11:55 AM 75.4 °F 55.6 °F 50% 30.29 in 10.0 mi NNW 8.1 mph - N/A   Clear
12:15 PM 75.9 °F 54.9 °F 48% 30.29 in 10.0 mi North 9.2 mph 17.3 mph N/A   Clear
12:35 PM 76.1 °F 55.8 °F 49% 30.29 in 10.0 mi North 9.2 mph - N/A   Clear
12:55 PM 76.1 °F 55.2 °F 48% 30.28 in 10.0 mi NNW 10.4 mph - N/A   Scattered Clouds
1:15 PM 77.0 °F 55.2 °F 47% 30.28 in 10.0 mi North 10.4 mph - N/A   Scattered Clouds
1:35 PM 77.0 °F 56.7 °F 49% 30.28 in 10.0 mi North 6.9 mph - N/A   Scattered Clouds
1:55 PM 78.1 °F 57.4 °F 49% 30.28 in 10.0 mi North 9.2 mph 16.1 mph N/A   Scattered Clouds
2:15 PM 77.4 °F 56.1 °F 48% 30.28 in 10.0 mi North 8.1 mph 18.4 mph N/A   Scattered Clouds
2:35 PM 76.5 °F 56.3 °F 50% 30.27 in 10.0 mi North 8.1 mph - N/A   Mostly Cloudy
2:55 PM 78.6 °F 55.9 °F 46% 30.27 in 10.0 mi North 10.4 mph - N/A   Mostly Cloudy
3:15 PM 77.4 °F 55.4 °F 47% 30.27 in 10.0 mi North 8.1 mph - N/A   Mostly Cloudy
3:35 PM 78.8 °F 55.8 °F 45% 30.27 in 10.0 mi NNW 11.5 mph 16.1 mph N/A   Scattered Clouds
3:55 PM 77.9 °F 53.8 °F 43% 30.27 in 10.0 mi North 10.4 mph 16.1 mph N/A   Mostly Cloudy
4:15 PM 77.5 °F 53.4 °F 43% 30.27 in 10.0 mi North 8.1 mph 16.1 mph N/A   Mostly Cloudy
4:35 PM 79.0 °F 54.1 °F 42% 30.26 in 10.0 mi North 9.2 mph 16.1 mph N/A   Mostly Cloudy
4:55 PM 77.7 °F 52.2 °F 41% 30.26 in 10.0 mi North 5.8 mph 16.1 mph N/A   Scattered Clouds
5:15 PM 78.6 °F 52.7 °F 40% 30.26 in 10.0 mi North 8.1 mph - N/A   Scattered Clouds
5:35 PM 79.0 °F 54.0 °F 42% 30.25 in 10.0 mi North 9.2 mph - N/A   Scattered Clouds
5:55 PM 78.4 °F 52.3 °F 40% 30.25 in 10.0 mi NNW 10.4 mph - N/A   Scattered Clouds
6:15 PM 78.3 °F 51.8 °F 40% 30.24 in 10.0 mi NNW 8.1 mph - N/A   Scattered Clouds
6:35 PM 77.9 °F 52.3 °F 41% 30.24 in 10.0 mi NNE 8.1 mph - N/A   Clear
6:55 PM 77.4 °F 53.8 °F 44% 30.24 in 10.0 mi North 5.8 mph - N/A   Clear
7:15 PM 76.8 °F 53.4 °F 44% 30.24 in 10.0 mi North 6.9 mph - N/A   Clear
7:35 PM 76.1 °F 53.2 °F 45% 30.24 in 10.0 mi North 5.8 mph - N/A   Clear
7:55 PM 75.4 °F 54.0 °F 47% 30.25 in 10.0 mi North 4.6 mph - N/A   Clear
8:15 PM 74.5 °F 54.1 °F 49% 30.25 in 10.0 mi North 3.5 mph - N/A   Clear
8:35 PM 72.9 °F 54.1 °F 52% 30.25 in 10.0 mi North 3.5 mph - N/A   Clear
8:55 PM 71.6 °F 54.5 °F 55% 30.25 in 10.0 mi North 3.5 mph - N/A   Clear
9:15 PM 70.9 °F 54.9 °F 57% 30.25 in 10.0 mi North 3.5 mph - N/A   Clear
9:35 PM 69.8 °F 55.4 °F 60% 30.26 in 10.0 mi Calm Calm - N/A   Clear
9:55 PM 69.4 °F 55.4 °F 61% 30.26 in 10.0 mi Calm Calm - N/A   Clear
10:15 PM 68.0 °F 55.9 °F 65% 30.27 in 10.0 mi Calm Calm - N/A   Clear
10:35 PM 67.3 °F 56.3 °F 68% 30.27 in 10.0 mi Calm Calm - N/A   Clear
10:55 PM 67.1 °F 55.8 °F 67% 30.28 in 10.0 mi Calm Calm - N/A   Clear
11:15 PM 66.4 °F 55.6 °F 68% 30.28 in 10.0 mi Calm Calm - N/A   Clear
11:35 PM 62.6 °F 55.8 °F 78% 30.28 in 10.0 mi Calm Calm - N/A   Clear
11:55 PM 63.0 °F 56.8 °F 80% 30.29 in 10.0 mi Calm Calm - N/A   Clear